Flag for United Kingdom Weather past 2 weeks in London, England, United Kingdom

Now
45 °F

Sunny.


Feels Like: 35 °F
Forecast: 39 / 45 °F
Wind: 26 mph from West

Location: Northolt

Current Time: Mar 2, 2015 at 12:16:42 PM

Latest Report: Mar 2, 2015 at 11:50 AM


Visibility: 10 mi

Pressure: 29.74 "Hg

Humidity: 42%

Dew point: 23 °F

Location of LondonLocation

Historic Weather in London — Graph

°F

London temperature yesterday

Maximum temperature yesterday: 54 °F (at 1:50 PM)
Minimum temperature yesterday: 39 °F (at 11:50 PM)
Average temperature yesterday: 47 °F

Past Weeks' High & Low Weather Summary

 TemperatureHumidityPressure
High54 °F (Feb 25, 3:50 PM)100% (Feb 15, 11:50 PM)30.74 "Hg (Feb 15, 11:50 PM)
Low27 °F (Feb 22, 5:50 AM)40% (Feb 24, 3:50 PM)29.24 "Hg (Feb 22, 9:50 PM)
Average42 °F79%29.87 "Hg
* Reported Feb 15 10:50 AM — Mar 2 10:50 AM, London, Weather by CustomWeather, © 2015

Note: Actual official high and low records may vary slightly from our data, if they occured in-between our weather recording intervals... More about our weather records

Advertising

London weather history for previous 24 hours

 ConditionsComfort  
Time TempWeatherWind HumidityBarometerVisibility
10:50 AM
Mon, Mar 2
45 °FScattered clouds.24 mph53%29.71 "HgN/A
9:50 AM41 °FScattered clouds.22 mph66%29.68 "HgN/A
8:50 AM41 °FBroken clouds.18 mph76%29.68 "HgN/A
7:50 AM39 °FBroken clouds.16 mph75%29.65 "HgN/A
6:50 AM37 °FScattered clouds.12 mph81%29.62 "HgN/A
5:50 AM37 °FClear.15 mph81%29.62 "HgN/A
4:50 AM37 °FClear.12 mph81%29.59 "HgN/A
3:50 AM36 °FClear.8 mph93%29.59 "HgN/A
2:50 AM36 °FClear.6 mph93%29.59 "HgN/A
1:50 AM37 °FClear.10 mph87%29.59 "HgN/A
12:50 AM37 °FClear.7 mph81%29.56 "HgN/A
11:50 PM
Sun, Mar 1
39 °FPassing clouds.8 mph81%29.53 "HgN/A
10:50 PM41 °FPassing clouds.13 mph76%29.53 "HgN/A
9:50 PM41 °FClear.12 mph81%29.50 "HgN/A
8:50 PM43 °FPassing clouds.15 mph76%29.47 "HgN/A
7:50 PM43 °FPassing clouds.17 mph81%29.47 "HgN/A
6:50 PM43 °FClear.14 mph81%29.45 "Hg10 mi
5:50 PM43 °FPassing clouds.12 mph87%29.45 "HgN/A
4:50 PM48 °FLight rain. Partly sunny.16 mph66%29.45 "HgN/A
3:50 PM52 °FScattered clouds.17 mph50%29.47 "HgN/A
2:50 PM52 °FBroken clouds.15 mph47%29.50 "HgN/A
1:50 PM54 °FScattered clouds.16 mph47%29.56 "HgN/A
12:50 PM52 °FScattered clouds.21 mph47%29.59 "HgN/A
Weather by CustomWeather, © 2015

See weather overviewHow to use our weather pages